Погода в Ставрополе

Погода в Ставрополе : погода сейчас, прогноз погоды и архив. Всё, что Вы хотите узнать о погоде в Ставрополе!

Поиск расширенной информации на нашем сайте:

Другие новости

Новости СМИ2

Главная страница сайта

Новости сайта

03.07.2017

Напоминаем, что на нашем специализированном сайте Метеоцентр.Азия вы можете получить высокодетализированные автоматические прогнозы погоды по пунктам России, СНГ и мира в авиационном формате (включающие направление и скорость ветра, видимость, явления погоды, количество и форму облачности, нижнюю и верхнюю границу облачности).


Погода в Ставрополе - сегодня

Время (UTC), дата Ветер
(°,м/с) 
Видим.   Явления Облачность Т
(°С)
Тd
(°С)
f(%) Тe
(°С)
Pmin
(гПа)
dP
(гПа)
Po
(мм)
O2
(г/м3)
Тmin Tmax R s Состояние
почвы
12 09.12.17 150 (ЮВ) 20000 м    3/0 верхняя 
[Ci fib]
+6.4 +2 73 +5  1022  -0.2  726  285           
15 09.12.17 160 (Ю) 20000 м    4/0 верхняя 
[Ci fib]
+3.5 -0.4 76 +2  1022.9  0.3  726  289    +8.9       
18 09.12.17 170 (Ю) 20000 м    3/0 средняя 
[Ac trans]
+1.9 -1.7 77 1022.9  -0.3  726  290           
21 09.12.17 140 (ЮВ) 20000 м    3/0 верхняя 
[Ci fib]
+2.2 -1.4 77 1022.4  -0.4  725  290           
00 10.12.17 130 (ЮВ) 20000 м    4/0 верхняя 
[Ci fib]
+0.8 -2.3 80 -2  1022.5  -0.2  725  292           
03 10.12.17 130 (ЮВ) 20000 м    4/0 верхняя 
[Ci fib]
+1.3 -2.8 74 -1  1021.5  -0.8  725  291  +0.6      мокрый или
старый снег
50-90% 
06 10.12.17 130 (ЮВ) 20000 м    5/0 средняя, верхняя 
[Ac trans|Ci fib]
+2.2 -2.1 73 1021.2  0.1  724  290  -0.2         
09 10.12.17 140 (ЮВ) 20000 м    3/0 верхняя 
[Ci fib]
+5 -0.7 67 +2  1019.6  -1  724  286           
12 10.12.17 140 (ЮВ) 20000 м    ясно 
+5.5 -1 63 +3  1017.9  -1.5  723  285           
15 10.12.17 130 (ЮВ) 20000 м    1/0 средняя 
[Ac trans]
+0.5 -2.3 81 -2  1018.1  -0.7  722  291    +5.9       
18 10.12.17 150 (ЮВ) 9-12{14}  20000 м    6/6 300 м 
[St]
+0.8 -0.2 93 -4  1016.8  -1.2  721  290           
21 10.12.17 140 (ЮВ) 3{12}  20000 м    3/3 300 м 
[St]
-0.5 -1.1 96 -2  1017.4  0.3  721  291           
00 11.12.17 280 (З) 9-14{14}  20000 м    6/0 средняя 
[Ac trans]
+4.2 -2 64 +1  1017.9  1.4  722  287           
03 11.12.17 280 (З) 20000 м    10/8 300 м средняя 
[St|Ac und]
+3.3 +1.5 88 +1  1021.2  725  288  -1.3      мокрый или
старый снег
50-90% 
06 11.12.17 290 (З) 7-10{18}  20000 м  {дождь}  4/3 300 м средняя 
[St|Ac trans]
+1.9 +0.1 88 -2  1024.4  2.7  727  291           
09 11.12.17 300 (СЗ) 6-11{13}  20000 м    4/1 300 м верхняя 
[Sc|Ci fib]
+3.8 -1.3 69 +1  1025.9  1.8  728  289           
12 11.12.17 270 (З) 2{11}  20000 м    8/3 600 м верхняя 
[Sc|Ci]
+4.4 -2.4 61 +4  1026.9  729  289           
15 11.12.17 200 (Ю) 20000 м    8/3 600 м верхняя 
[Sc|Ci]
+0.6 -2.2 81 -1  1028.9  1.2  730  294    +5.4  0.0     
18 11.12.17 170 (Ю) 20000 м    10/0 средняя 
[Ac und]
+2 -1.9 75 1028.4  -0.2  730  292           
21 11.12.17 160 (Ю) 20000 м    6/0 средняя, верхняя 
[Ac trans|Ci fib]
+2.2 -1.2 78 +1  1028.4  730  292           
00 12.12.17 170 (Ю) 20000 м    10/0 средняя 
[Ac und]
+2 -1.3 79 +1  1028  -0.4  729  292           
03 12.12.17 140 (ЮВ) 20000 м    10/3 1000 м средняя 
[Sc|Ac und]
+2.2 -0.8 81 1027.4  -0.4  729  291  +0.4         
06 12.12.17 170 (Ю) 20000 м    9/0 средняя 
[Ac trans]
+3 -0.6 77 +2  1027.1  729  290           
09 12.12.17 180 (Ю) 20000 м    8/0 средняя, верхняя 
[Ac trans|Ci fib]
+9 -1.2 49 +8  1025.6  -0.3  729  284           
12 12.12.17 180 (Ю) 20000 м    9/0 средняя 
[Ac trans]
+9.6 -2.5 43 +9  1025.1  -0.4  728  284           
Время (UTC), дата Ветер
(°,м/с) 
Видим.   Явления Облачность Т
(°С)
Тd
(°С)
f(%) Тe
(°С)
Pmin
(гПа)
dP
(гПа)
Po
(мм)
O2
(г/м3)
Тmin Tmax R s Состояние
почвы

Для получения пояснительной информации подведите курсор к названию столбца.

ПОГОДА в Ставрополе - архив

Всё, что Вы хотите узнать о погоде в Ставрополе - удобно и подробно!

Выберите нужную дату (начиная с 1 января 2015* года) и нажмите кнопку "Найти".
Будут отображены архивные сводки погоды по пункту Ставрополь, начиная с указанной даты.


Отображать данные в формате CSV (для использования в таблицах Excel)


Внимание! Наш архив погоды предназначен исключительно для личного некоммерческого использования в познавательных целях. Если Вам необходимы официальные справки о состоянии погоды (для производственных, юридических, коммерческих и т.п. целей), обращайтесь в органы Росгидромета.

*Примечание: данная дата относится к архиву по метеостанциям СССР (Россия, СНГ, Балтия).
Архив по метеостанциям Зарубежной Европы и Азии (кроме Китая) хранится 10 дней, по другим регионам земного шара (Китай, Африка, Америка, Австралия, Океания) - 1 день.

Ставрополь - район местоположения метеостанции


Название, широта, долгота, высота метеостанции:
Ставрополь 45.1°ш. 42.1°д. 452 м над ур. моря [Российская Федерация]

Дополнительная информация

В oтличие oт бoльшинства пoгoдных сайтoв мы публикуем пoдрoбную метеoинфoрмацию в детальнoм прoфессиoнальнoм фoрмате.

Характеристики температуры и влажнoсти вoздуха измеряются на высoте 2 м в тени вдали oт зданий и деревьев.
Скoрoсть ветра измеряется на высoте 10 м (на урoвне рoста челoвека скoрoсть ветра ниже в 1.5-2 раза). Если метеoстанция нахoдится в гoрoде или в лесу, тo скoрoсть ветра занижена на 2-4 м/с пo сравнению с oткрытым местoм. Скoрoсть ветра над акватoриями крупных рек и oзёр, а также на вершинах хoлмoв на 2-5 м/с выше, чем в oбычных услoвиях.
Атмoсфернoе давление в разных тoчках местнoсти мoжет значительнo oтличаться oт давления на метеoстанции, в зависимoсти oт услoвий рельефа (при пoдъёме на 10 м давление пoнижается примернo на 1 мм рт.ст.).